Meteo Giornale » Osservazioni meteo Gran Bretagna » Farnborough

ore: 04:50 - Osservazioni Meteo Farnborough
Lat. 51° 17' N Lon. 0° 46' W Alt. 65 metri s.l.m.

coperto Europe/London

16 °C

Coperto

Temp. 24 Ore

15 °C

24 °C

Nord-Est

14.8 Km/h

Dew point 14 °C

Umidità 87 %

Visibilità  10 Km

Il sole sorge alle ore 05:14

Il sole tramonta alle ore 21:04

Data e Ora Cielo e Fenomeni T °C DP °C Um. % Pres. hPa Vis. km Vento km/h
Oggi h: 04:50 coperto Coperto 16 14 87 1008 10 NE 14.8
Oggi h: 04:20 coperto Coperto 17 14 82 1007 10 N/NE 20.3
Oggi h: 03:50 coperto Coperto 16 14 87 1009 10 E/NE 13
Oggi h: 03:20 coperto Coperto 17 14 82 1009 10 NE 13
Oggi h: 02:50 coperto Coperto 17 14 82 1009 10 NE 22.2
Oggi h: 02:20 coperto Coperto 17 14 82 1009 10 E/NE 20.3
Oggi h: 01:50 coperto Coperto 17 13 77 1010 10 E 20.3
Oggi h: 01:20 nuvoloso Nuvoloso 16 13 82 1010 10 E/NE 31.5
Oggi h: 00:50 poco_nuvoloso Poco Nuvoloso 17 13 77 1009 10 NE 20.3
Oggi h: 00:20 poco_nuvoloso Poco Nuvoloso 17 13 77 1012 10 E/NE 24
Ieri h: 23:50 molto_nuvoloso Molto Nuvoloso 17 13 77 1012 10 E/NE 22.2
Ieri h: 23:20 molto_nuvoloso Molto Nuvoloso 17 13 77 1013 10 E/NE 22.2
Ieri h: 22:50 sereno Sereno 17 13 77 1013 10 E/NE 14.8
Ieri h: 22:20 sereno Sereno 17 13 77 1013 10 NE 22.2
Ieri h: 21:50 sereno Sereno 17 12 72 1013 10 E/NE 22.2
Ieri h: 21:20 sereno Sereno 17 12 72 1013 10 E/NE 20.3
Ieri h: 20:50 sereno Sereno 18 13 72 1012 10 E/NE 22.2
Ieri h: 20:20 sereno Sereno 18 13 72 1012 10 E/NE 22.2
Ieri h: 19:50 nuvoloso Nuvoloso 18 14 77 1012 10 E/NE 22.2
Ieri h: 19:20 nuvoloso Nuvoloso 19 14 72 1012 10 E/NE 33.3
Ieri h: 18:50 nuvoloso Nuvoloso 19 14 72 1013 10 E/NE 24
Ieri h: 18:20 sereno Sereno 21 15 68 1013 10 E/NE 27.8
Ieri h: 17:50 sereno Sereno 21 15 68 1013 10 E 27.8
Ieri h: 17:20 sereno Sereno 22 15 64 1013 10 E 27.8
Ieri h: 16:50 sereno Sereno 22 15 64 1014 10 E/NE 25.9
Ieri h: 16:20 sereno Sereno 23 14 56 1014 10 E/NE 29.6
Ieri h: 15:50 sereno Sereno 24 14 53 1014 10 NE 29.6
Ieri h: 15:20 sereno Sereno 24 13 50 1014 10 E/NE 27.8
Ieri h: 14:50 sereno Sereno 23 13 53 1015 10 E/NE 27.8
Ieri h: 14:20 sereno Sereno 24 14 53 1015 10 E/NE 24
Ieri h: 13:20 sereno Sereno 24 13 50 1016 10 E 24
Ieri h: 12:50 sereno Sereno 24 14 53 1016 10 E 24
Ieri h: 12:20 sereno Sereno 23 14 56 1016 10 E/NE 24
Ieri h: 11:50 sereno Sereno 22 14 60 1016 10 E 22.2
Ieri h: 11:20 sereno Sereno 22 14 60 1017 10 E/NE 22.2
Ieri h: 10:50 sereno Sereno 21 13 60 1018 10 E 18.5
Ieri h: 10:20 sereno Sereno 21 14 64 1018 10 E 14.8
Ieri h: 09:50 sereno Sereno 20 13 64 1018 10 E/NE 18.5
Ieri h: 09:20 sereno Sereno 20 13 64 1018 10 E/NE 18.5
Ieri h: 08:50 poco_nuvoloso Poco Nuvoloso 18 14 77 1019 10 E 16.7
Ieri h: 08:20 nuvoloso Nuvoloso 17 15 88 1019 10 E/NE 14.8
Ieri h: 07:50 nuvoloso Nuvoloso 17 15 88 1019 10 E/NE 14.8
Ieri h: 07:20 poco_nuvoloso Poco Nuvoloso 16 14 87 1019 10 E/NE 14.8
Ieri h: 06:50 sereno Sereno 16 14 87 1019 10 E/NE 16.7
Ieri h: 06:20 sereno Sereno 16 14 87 1019 10 E/NE 14.8
Ieri h: 05:50 sereno Sereno 15 14 93 1019 10 E/NE 14.8